Location: Owl River
(54.8872°N, 111.8867°W)
Time: 16:37:24
(UTC+00:00)

BlueWalker 3 - Pass Details

Date: 24 April 2024
Orbit: 481 x 494 km, 53.2° (Epoch: 26 May)

Event Time Altitude Azimuth Distance (km) Brightness Sun altitude
Rises 05:42:38 0° 276° (W) 2,580 6.0 -18.7°
Reaches altitude 10° 05:44:50 10° 272° (W) 1,698 5.0 -18.8°
Maximum altitude 05:48:37 59° 193° (SSW) 580 1.9 -19.0°
Enters shadow 05:48:52 57° 173° (S) 590 1.9 -19.1°
